Temp
92 94 93 95 95 98 98 96 96 96 96 98 98 96 98 99 100 100 100 84 81 80 80 81 81 81 81 80 79 78 77 77 76 77 78 80 80 78 79 80 80 80 80
93 94 95 96 97 98 98 97 95 94 96 99 99 99 97 99 100 99 101 100 81 79 79 80 81 82 81 81 80 78 78 78 76 75 77 77 78 77 78 78 79 80 80
93 90 96 96 98 96 93 96 95 98 98 100 98 99 100 99 99 97 98 99 94 79 79 79 80 78 81 81 80 79 78 78 77 75 76 75 76 77 77 77 79 79 78
92 92 96 98 98 97 98 98 98 97 98 98 97 98 98 99 98 97 97 95 96 95 80 79 78 78 78 80 80 80 80 78 78 76 75 75 75 75 75 76 78 78 78
96 94 97 99 96 98 99 97 97 95 95 96 97 98 98 98 98 99 95 92 91 92 94 77 78 77 78 78 79 79 79 79 78 77 75 75 75 74 75 75 77 77 77
95 95 98 96 96 98 99 96 91 95 94 96 95 97 97 98 98 96 94 94 92 89 92 87 87 82 77 77 78 78 79 79 77 77 77 77 75 75 75 75 75 76 76
96 94 99 97 96 95 93 93 94 92 93 95 93 94 97 101 98 96 95 93 90 92 90 87 87 85 86 78 78 77 78 79 77 77 77 75 75 75 75 75 74 75 76
96 96 95 97 96 96 92 92 91 91 95 95 89 90 88 95 97 95 94 92 89 90 89 87 83 82 85 85 82 77 77 77 77 77 76 76 76 75 75 75 74 75 76
97 95 94 94 94 94 97 94 93 88 85 92 90 86 85 84 89 92 89 89 85 87 86 87 83 81 80 84 83 83 76 75 76 77 77 76 75 75 74 75 75 74 74
96 97 95 94 93 97 94 95 95 90 88 86 93 89 88 86 82 84 91 90 87 85 82 84 84 84 83 85 81 78 75 75 75 77 77 76 75 74 74 74 74 74 74
96 97 97 95 93 96 96 93 90 90 94 90 92 90 90 93 84 80 81 85 87 87 84 80 83 82 83 82 86 81 75 76 75 75 77 77 76 75 74 74 74 73 74
100 97 97 95 94 94 94 94 92 90 91 90 92 90 92 89 88 80 81 82 82 81 78 80 80 80 83 85 83 75 75 75 75 74 75 76 76 76 75 75 75 75 75
99 97 95 94 97 95 94 93 91 91 91 90 88 90 93 89 91 87 82 82 79 76 76 75 76 83 85 84 83 75 73 75 73 73 72 73 74 75 75 75 76 76 76
98 97 95 95 95 95 94 94 94 94 92 92 89 88 91 94 92 89 81 82 78 76 71 69 82 80 84 82 79 75 79 73 71 70 71 72 72 72 71 73 74 73 74
97 94 94 94 94 94 94 93 94 92 92 91 90 89 89 93 91 88 86 83 78 72 66 67 70 81 83 84 76 79 76 70 71 70 70 70 71 71 71 72 72 71 72
93 92 92 94 93 93 93 91 93 94 90 92 93 89 88 92 88 88 86 81 80 80 74 70 72 79 80 83 77 79 76 73 70 70 69 69 70 70 70 70 70 69 71
91 90 90 90 91 91 91 91 90 90 89 89 89 88 87 87 88 89 85 82 84 81 73 70 76 76 75 74 76 78 78 74 72 68 68 67 68 68 69 68 68 69 68
91 90 90 89 89 90 90 89 89 91 90 89 89 88 87 89 84 84 82 81 83 83 80 68 75 77 76 72 72 74 79 75 76 68 67 66 66 65 66 66 66 66 65
90 91 91 89 88 89 89 89 88 89 89 90 90 88 88 87 84 87 83 80 80 82 81 80 77 80 78 78 75 74 76 74 76 68 66 65 65 64 63 63 63 62 61
89 90 90 89 89 89 90 89 89 89 89 90 90 89 89 87 85 83 79 77 78 77 81 80 79 77 78 76 80 77 76 78 73 72 68 66 68 64 64 63 62 62 60
90 90 89 90 90 91 92 90 89 89 89 89 90 90 88 85 77 78 82 79 78 79 80 81 79 78 78 76 76 78 78 77 76 67 73 64 74 73 70 66 66 63 61
87 88 89 89 89 93 78 73 79 91 89 88 87 89 88 77 74 69 70 72 77 77 78 81 80 78 75 77 78 78 78 75 73 80 74 71 69 69 71 71 64 62 61
85 85 87 88 89 90 73 68 70 86 89 89 88 88 86 85 78 82 69 67 69 68 72 79 77 77 75 77 77 74 74 75 77 77 76 73 78 70 74 69 62 62 61
83 83 84 85 85 87 70 64 66 82 85 88 89 88 84 83 82 83 81 79 80 79 78 83 80 79 79 78 77 78 74 74 76 79 78 71 75 73 76 75 62 62 61
81 82 84 83 82 82 66 63 66 84 85 86 89 86 84 83 70 66 81 79 78 80 69 68 66 66 67 68 74 81 76 74 75 76 78 78 77 76 77 78 72 61 60
81 85 82 82 78 80 68 59 64 78 83 86 83 81 67 78 62 63 80 79 76 78 79 77 76 70 70 71 66 77 81 71 79 76 79 74 79 79 72 80 80 76 73
MSLP
1016.80 1016.61 1016.49 1016.32 1016.17 1015.85 1015.55 1015.65 1015.58 1015.36 1015.24 1014.56 1014.48 1014.64 1014.13 1013.85 1013.73 1013.67 1013.60 1014.36 1014.98 1015.36 1015.60 1015.65 1015.59 1015.69 1015.93 1016.19 1016.39 1016.73 1016.97 1017.43 1017.47 1018.12 1018.46 1018.34 1018.54 1019.17 1019.55 1019.57 1019.77 1020.16 1020.51
1016.65 1016.42 1016.26 1015.86 1015.73 1015.67 1015.64 1015.58 1015.58 1015.53 1015.15 1014.27 1014.07 1013.88 1013.99 1013.62 1013.33 1013.53 1013.13 1013.11 1014.43 1015.02 1015.24 1015.24 1015.21 1015.25 1015.42 1015.77 1016.00 1016.18 1016.33 1016.39 1016.68 1017.43 1017.96 1018.34 1018.50 1018.88 1019.50 1019.73 1019.89 1020.08 1020.38
1016.55 1016.82 1016.09 1015.90 1015.53 1015.87 1016.01 1015.59 1015.40 1014.84 1014.52 1013.96 1013.79 1013.55 1013.32 1013.15 1013.12 1013.35 1013.34 1012.97 1013.58 1014.63 1015.00 1015.16 1015.08 1015.13 1014.97 1015.24 1015.55 1015.64 1015.66 1015.60 1015.88 1016.52 1017.38 1017.76 1018.18 1018.75 1019.25 1019.70 1020.01 1019.96 1020.33
1016.54 1016.39 1015.87 1015.53 1015.61 1015.63 1015.45 1015.06 1014.88 1014.69 1014.25 1013.96 1013.60 1013.35 1013.27 1012.97 1012.79 1012.99 1013.01 1013.37 1013.31 1013.53 1014.91 1015.19 1015.26 1015.25 1015.19 1015.22 1015.16 1015.08 1014.86 1014.73 1015.02 1015.58 1016.30 1016.99 1017.65 1018.31 1018.88 1019.41 1019.64 1019.94 1020.18
1015.95 1016.11 1015.54 1015.30 1015.79 1015.27 1015.11 1015.09 1014.80 1014.77 1014.40 1013.97 1013.51 1013.29 1013.06 1012.74 1012.76 1012.74 1013.04 1013.44 1013.75 1013.75 1013.56 1014.96 1015.01 1015.05 1015.04 1015.04 1014.88 1014.53 1014.04 1013.57 1014.17 1014.67 1015.70 1016.49 1017.23 1018.04 1018.36 1019.04 1019.50 1019.83 1020.06
1015.75 1015.82 1015.23 1015.50 1015.58 1015.09 1014.86 1015.17 1015.43 1014.92 1014.60 1013.79 1013.81 1012.96 1012.77 1012.69 1012.89 1012.72 1013.05 1013.38 1013.74 1014.02 1013.85 1014.37 1014.11 1014.33 1014.63 1014.76 1014.61 1014.24 1013.81 1013.48 1013.73 1014.51 1015.16 1015.72 1016.60 1017.40 1018.02 1018.49 1019.18 1019.68 1020.04
1015.35 1015.53 1014.99 1015.17 1015.28 1015.27 1015.46 1015.50 1015.11 1014.81 1014.52 1014.20 1013.75 1013.06 1012.06 1012.11 1012.75 1012.30 1013.09 1013.15 1013.60 1013.57 1013.95 1014.09 1013.87 1014.03 1013.74 1014.22 1014.37 1014.32 1013.97 1013.83 1014.04 1014.34 1014.69 1015.20 1015.90 1016.77 1017.53 1018.21 1018.84 1019.35 1019.84
1015.04 1015.09 1015.18 1014.97 1015.02 1014.98 1015.25 1015.23 1015.27 1014.98 1014.12 1014.10 1014.22 1013.32 1012.20 1011.59 1011.88 1012.35 1013.18 1013.32 1013.49 1013.38 1013.64 1013.83 1014.17 1014.24 1013.97 1013.75 1014.10 1014.21 1014.07 1013.91 1013.84 1014.04 1014.32 1014.90 1015.39 1016.06 1016.84 1017.49 1018.36 1019.01 1019.56
1014.78 1014.87 1014.92 1014.89 1014.95 1015.09 1014.38 1014.97 1014.97 1015.21 1015.04 1014.42 1014.55 1014.34 1013.02 1012.53 1012.40 1012.33 1013.08 1013.56 1013.98 1013.84 1014.04 1013.63 1014.01 1014.42 1014.38 1013.94 1013.78 1013.63 1014.14 1014.10 1013.90 1013.85 1014.12 1014.44 1015.05 1015.58 1016.23 1016.96 1017.85 1018.59 1019.25
1014.54 1014.47 1014.55 1014.53 1014.65 1014.41 1014.46 1014.57 1014.58 1014.80 1014.68 1014.60 1013.77 1014.13 1014.30 1014.08 1013.43 1012.35 1012.29 1012.97 1013.63 1013.88 1014.33 1014.14 1013.93 1013.83 1014.05 1013.81 1013.97 1014.03 1014.17 1014.08 1014.04 1013.93 1013.93 1014.22 1014.59 1015.23 1015.89 1016.55 1017.26 1018.14 1019.03
1014.27 1014.11 1014.08 1014.10 1014.29 1014.30 1013.98 1014.35 1014.43 1014.56 1014.12 1014.29 1013.71 1013.70 1013.22 1012.81 1013.66 1013.69 1012.59 1012.45 1012.78 1013.57 1014.24 1014.73 1014.38 1014.06 1014.23 1014.31 1013.50 1013.66 1014.02 1013.85 1013.74 1013.63 1013.72 1013.98 1014.47 1015.00 1015.53 1016.00 1016.50 1017.13 1018.32
1013.37 1013.58 1013.81 1013.81 1013.84 1013.98 1013.95 1014.02 1014.16 1014.30 1014.18 1014.08 1013.79 1013.66 1012.84 1012.72 1012.68 1013.48 1013.04 1012.79 1012.94 1013.67 1014.65 1014.61 1014.82 1014.47 1014.37 1013.77 1013.77 1014.24 1014.04 1013.75 1013.71 1013.52 1013.48 1013.69 1013.99 1014.22 1014.88 1015.56 1016.17 1016.93 1017.85
1012.93 1013.06 1013.62 1013.69 1013.40 1013.44 1013.70 1013.90 1013.93 1014.00 1013.72 1013.63 1013.78 1013.54 1012.89 1012.77 1012.54 1012.93 1013.15 1012.90 1013.01 1014.04 1014.71 1015.00 1015.05 1014.21 1013.95 1013.93 1013.92 1014.39 1014.27 1013.98 1013.99 1013.94 1013.90 1013.90 1013.78 1013.89 1014.23 1014.87 1015.70 1016.40 1017.25
1012.77 1013.02 1013.33 1013.39 1013.29 1013.23 1013.33 1013.46 1013.46 1013.35 1013.44 1013.30 1013.48 1013.40 1012.81 1012.18 1012.28 1012.51 1013.21 1012.91 1012.84 1013.72 1014.66 1014.90 1014.79 1014.62 1014.13 1014.53 1014.48 1014.43 1014.16 1014.37 1014.46 1014.59 1014.57 1014.54 1014.19 1013.95 1014.10 1014.95 1015.53 1016.01 1016.35
1012.73 1012.95 1013.13 1013.13 1013.05 1013.01 1013.14 1013.30 1013.02 1013.12 1013.14 1013.09 1012.94 1012.95 1012.69 1012.00 1012.38 1012.81 1013.05 1013.06 1013.20 1013.37 1014.39 1015.13 1014.97 1014.62 1014.16 1014.19 1014.86 1014.44 1014.64 1015.03 1015.01 1015.00 1015.09 1015.05 1014.91 1014.79 1014.88 1015.28 1015.86 1016.33 1016.70
1012.66 1012.80 1012.79 1012.73 1012.79 1012.77 1012.77 1012.89 1012.71 1012.51 1012.93 1012.64 1012.25 1012.34 1012.45 1011.85 1012.57 1012.72 1012.82 1013.08 1013.12 1012.91 1013.57 1014.85 1015.00 1014.65 1014.61 1014.39 1015.02 1014.77 1015.17 1015.21 1015.42 1015.47 1015.58 1015.48 1015.39 1015.40 1015.58 1015.81 1015.98 1016.33 1016.08
1012.44 1012.50 1012.51 1012.45 1012.40 1012.41 1012.43 1012.43 1012.46 1012.34 1012.18 1012.06 1012.04 1012.04 1011.91 1012.13 1012.15 1012.23 1012.78 1012.80 1012.48 1012.75 1013.31 1014.71 1014.62 1014.99 1015.22 1015.38 1015.13 1015.07 1015.07 1015.45 1015.70 1015.95 1016.10 1016.09 1015.98 1015.75 1016.02 1016.17 1016.26 1016.54 1016.66
1011.98 1012.04 1012.04 1011.98 1011.96 1011.92 1011.88 1011.93 1011.99 1011.67 1011.41 1011.39 1011.28 1011.26 1011.42 1011.75 1012.38 1012.53 1012.85 1012.77 1012.50 1012.71 1012.82 1014.24 1014.33 1014.58 1014.70 1015.71 1015.76 1015.47 1015.02 1015.56 1015.58 1016.41 1016.40 1016.42 1016.47 1016.34 1016.46 1016.76 1016.84 1017.07 1017.37
1011.53 1011.51 1011.35 1011.44 1011.51 1011.50 1011.49 1011.56 1011.55 1011.32 1011.10 1010.81 1010.67 1010.92 1011.17 1011.57 1012.10 1012.12 1012.56 1012.65 1012.84 1012.88 1012.95 1012.99 1013.68 1014.15 1014.63 1015.06 1015.46 1015.54 1015.54 1015.84 1015.95 1016.74 1016.95 1017.01 1016.86 1016.80 1016.92 1017.10 1017.20 1017.46 1017.77
1011.23 1011.13 1011.03 1010.96 1010.97 1010.95 1010.86 1010.86 1010.96 1010.75 1010.43 1010.10 1010.37 1010.69 1011.08 1011.49 1011.66 1011.72 1012.23 1012.71 1012.65 1012.83 1012.78 1012.83 1013.29 1013.90 1014.14 1015.00 1014.62 1014.73 1015.11 1015.19 1015.86 1016.52 1017.09 1017.09 1017.08 1017.17 1017.19 1017.36 1017.28 1017.66 1018.08
1011.07 1010.94 1010.83 1010.65 1010.59 1010.42 1010.33 1010.31 1010.25 1010.06 1009.78 1009.71 1009.85 1010.30 1010.80 1011.08 1011.55 1011.90 1012.20 1012.42 1012.77 1012.66 1012.49 1012.44 1012.84 1013.46 1013.80 1014.26 1014.14 1014.38 1014.56 1015.13 1015.59 1016.36 1016.67 1016.96 1016.58 1016.66 1017.12 1017.40 1017.55 1017.70 1017.93
1011.23 1010.98 1010.53 1010.43 1010.42 1009.96 1009.68 1010.08 1010.22 1009.57 1009.32 1009.30 1009.29 1009.62 1010.17 1011.09 1011.70 1012.17 1012.53 1012.67 1012.64 1012.73 1012.48 1012.20 1012.47 1012.86 1013.69 1013.96 1014.08 1014.12 1014.43 1014.59 1014.58 1015.33 1015.90 1016.38 1016.45 1016.78 1016.85 1017.03 1017.55 1017.59 1017.88
1011.55 1011.22 1010.82 1010.55 1010.14 1009.90 1009.97 1010.05 1010.14 1010.04 1009.20 1008.77 1008.85 1008.99 1009.51 1010.54 1011.26 1011.60 1012.33 1012.86 1012.94 1012.96 1013.10 1012.87 1012.73 1013.03 1013.69 1013.77 1014.06 1014.48 1014.64 1014.44 1014.17 1015.12 1015.09 1015.37 1015.58 1016.48 1016.57 1017.67 1017.99 1018.17 1018.22
1011.53 1011.33 1011.00 1010.82 1010.47 1010.07 1010.00 1009.88 1009.77 1009.83 1009.25 1008.62 1008.41 1008.55 1009.34 1009.97 1010.43 1010.74 1011.41 1012.16 1012.22 1012.47 1012.86 1013.08 1013.09 1013.29 1013.58 1014.05 1014.27 1014.26 1014.83 1015.00 1015.06 1014.94 1015.10 1014.87 1015.57 1015.91 1016.24 1017.15 1018.10 1018.33 1018.48
1011.29 1011.01 1010.70 1010.69 1010.50 1010.27 1010.16 1010.04 1009.90 1009.02 1008.36 1008.07 1007.98 1008.37 1009.12 1009.43 1010.15 1010.93 1010.96 1011.42 1011.70 1011.88 1012.62 1013.33 1013.47 1013.65 1013.84 1014.25 1014.00 1014.06 1014.32 1014.35 1014.23 1014.55 1015.07 1014.50 1015.07 1015.50 1015.96 1016.39 1017.80 1018.43 1018.50
1010.83 1010.48 1010.47 1010.43 1010.16 1010.00 1009.95 1010.03 1009.95 1009.25 1008.06 1007.56 1007.53 1008.05 1008.70 1008.95 1009.84 1010.64 1010.62 1010.94 1011.19 1011.31 1011.66 1013.11 1013.72 1014.18 1014.20 1014.50 1014.61 1014.04 1013.87 1014.22 1013.51 1014.02 1014.53 1014.45 1014.50 1014.85 1015.42 1016.00 1016.58 1017.63 1018.03
Wind_Speed
3 4 4 4 4 4 4 4 4 5 7 6 5 6 8 8 7 5 5 13 10 10 12 12 12 13 15 15 17 19 19 20 23 22 22 18 15 12 13 14 15 14 12
3 5 4 5 4 4 5 4 5 7 7 6 6 7 7 8 7 6 7 2 11 7 8 10 12 13 12 17 17 20 23 25 26 25 23 16 14 17 13 12 12 12 12
4 5 4 5 4 4 4 3 5 3 6 6 7 8 8 7 7 7 8 6 5 10 4 4 5 1 4 12 17 20 22 22 24 25 24 19 17 13 14 13 13 12 11
5 5 4 3 5 4 3 3 4 5 7 8 7 7 8 8 7 6 5 5 4 1 8 7 4 3 3 5 10 15 19 20 23 26 27 25 22 18 19 18 15 12 12
5 5 4 2 3 4 3 5 6 5 7 8 9 8 7 7 5 5 4 5 3 3 3 10 3 5 3 4 6 10 14 16 21 25 26 27 24 23 22 19 16 10 12
5 5 4 3 4 4 4 6 6 7 8 6 9 8 7 6 4 5 7 4 3 4 3 4 6 5 6 2 6 11 9 4 16 23 26 28 31 28 24 23 19 17 17
5 4 5 3 5 4 4 4 4 6 7 7 9 9 6 1 2 3 4 4 4 2 3 5 4 5 4 7 6 9 10 4 10 19 23 26 28 28 28 26 23 20 20
4 4 3 3 3 5 4 5 3 6 8 7 8 9 6 2 7 7 3 5 5 5 5 4 4 4 5 5 7 3 6 7 2 15 22 24 27 27 28 27 24 22 19
5 4 4 5 5 6 6 2 5 6 5 8 4 5 7 9 10 6 2 4 5 4 4 4 4 4 4 4 6 3 7 7 4 8 16 22 24 24 27 26 23 21 19
4 4 4 6 7 7 6 5 4 6 3 7 6 2 2 6 6 6 6 2 3 4 5 5 5 4 5 6 4 2 6 7 7 8 12 17 22 23 23 25 26 24 22
6 6 5 5 6 7 5 5 7 5 6 3 5 5 6 6 4 5 8 8 3 4 5 4 4 4 6 5 6 6 10 8 6 8 10 13 19 25 26 27 28 28 26
5 5 6 5 5 6 7 6 5 5 5 6 6 7 6 7 8 3 7 8 6 5 3 3 4 5 4 5 6 11 10 6 4 5 6 9 13 19 29 29 29 30 28
7 6 4 7 6 5 6 5 3 5 5 5 5 7 5 6 5 4 4 7 5 2 1 4 3 4 6 6 7 12 14 7 4 8 9 8 5 10 20 26 28 28 31
7 6 7 8 8 6 5 5 6 5 4 5 6 7 7 6 5 4 3 7 5 2 1 2 2 4 4 7 7 11 10 8 9 8 6 6 9 11 10 15 17 10 32
9 10 10 10 9 9 8 7 7 5 5 6 6 7 7 6 4 2 4 4 5 2 3 2 1 2 3 5 8 7 7 10 9 8 7 6 6 8 9 8 8 10 20
9 9 10 10 10 10 9 8 8 7 7 7 6 5 7 5 2 3 4 3 5 4 1 2 0 3 4 4 6 6 9 7 9 9 10 5 6 7 7 7 7 6 23
10 11 11 11 11 11 11 10 9 9 9 9 8 8 8 5 4 4 2 6 3 4 3 3 3 4 5 5 5 5 6 7 8 10 11 12 7 9 8 10 9 9 11
9 11 11 11 12 11 11 11 11 11 10 11 10 10 9 5 5 3 4 4 4 1 1 5 5 6 4 5 4 4 4 7 7 9 8 10 10 11 9 7 8 8 10
9 10 9 10 11 11 11 11 11 12 13 13 12 11 9 6 5 3 4 5 4 3 4 6 6 5 6 5 7 5 4 6 8 9 9 9 9 9 8 5 6 6 6
8 8 8 9 10 11 11 11 12 13 14 13 12 11 8 6 7 7 6 6 4 5 3 5 6 7 6 5 3 5 5 6 6 7 8 6 5 8 7 5 8 7 8
6 7 8 9 10 10 9 12 12 14 14 14 12 10 8 7 2 4 6 8 6 7 6 6 6 6 5 6 5 4 3 4 4 7 7 3 4 4 6 6 9 9 9
8 7 6 8 10 9 6 9 11 13 14 14 13 11 9 8 6 5 3 4 7 7 6 5 5 5 5 5 4 5 4 6 6 4 4 7 4 4 4 6 8 5 3
8 8 9 10 10 10 6 8 10 15 16 14 13 12 10 8 9 10 7 5 6 3 5 5 4 5 7 5 5 4 2 4 2 6 6 6 6 7 6 8 8 4 3
7 8 9 10 12 11 9 8 10 13 17 17 15 12 10 11 12 11 10 11 10 10 8 7 5 6 6 7 7 3 4 3 4 5 3 6 7 6 7 8 9 5 4
8 8 9 11 11 12 10 8 7 12 15 17 14 10 12 12 11 9 12 11 11 10 9 8 10 11 10 5 4 6 6 6 6 7 5 6 6 7 6 8 8 7 7
10 9 11 11 12 13 10 6 7 9 15 12 10 10 9 12 15 14 13 12 12 12 11 11 8 6 8 7 4 6 4 5 6 5 6 3 7 7 6 5 8 8 7
Wind_Direction
298 288 337 300 325 315 315 308 319 325 330 303 283 295 290 304 288 277 282 164 206 249 261 260 252 249 222 211 207 202 210 224 228 239 250 216 205 203 227 207 195 196 193
298 313 300 315 301 330 340 323 327 315 322 320 318 309 307 295 293 308 312 291 171 223 244 255 252 254 239 217 215 212 218 225 223 218 233 228 199 200 206 231 220 194 187
245 281 295 303 345 354 279 263 279 287 293 315 319 313 302 309 309 331 306 327 146 155 183 240 252 340 278 224 233 227 230 235 216 207 217 210 208 199 196 217 221 207 190
245 250 254 283 20 307 319 306 308 328 326 323 327 321 325 321 332 306 318 350 2 26 141 106 73 51 342 277 270 267 262 240 215 206 205 206 198 190 193 205 216 212 193
259 256 268 308 291 299 301 318 346 334 327 329 319 327 330 323 356 11 329 7 24 341 341 138 156 130 62 350 325 317 308 234 219 198 195 197 192 193 191 197 211 206 186
259 248 248 276 284 297 322 7 327 343 319 346 334 319 338 352 22 338 15 15 43 336 335 340 313 147 119 20 5 357 339 304 190 191 196 210 200 190 191 193 194 188 188
242 223 258 232 242 260 349 296 303 330 308 5 319 338 311 196 286 8 43 5 36 298 308 335 331 336 165 165 71 4 11 339 201 201 201 193 186 191 194 195 191 189 190
242 210 257 279 287 300 236 280 308 324 333 17 338 317 344 76 3 72 28 17 19 353 359 350 4 22 334 341 32 343 9 1 295 211 200 191 192 193 192 193 194 191 195
225 218 237 278 282 263 280 326 290 327 315 322 8 315 343 351 328 119 97 18 8 356 354 347 38 36 14 344 313 62 24 335 317 222 212 203 198 193 191 192 191 190 194
238 237 250 270 267 284 311 273 243 300 311 327 316 174 292 327 335 320 351 70 10 5 18 20 13 37 10 1 356 334 341 318 295 267 227 211 195 192 190 196 196 192 196
254 260 280 304 269 253 273 285 278 275 304 285 336 318 320 317 182 303 310 342 351 32 30 23 355 10 29 349 338 23 344 312 263 257 245 222 211 203 197 205 195 191 193
238 228 281 290 284 275 264 281 291 274 302 308 316 296 324 336 330 310 294 331 327 58 48 35 26 342 1 317 30 347 359 324 296 275 242 229 221 216 201 200 196 195 190
253 239 241 262 279 265 281 290 292 291 289 303 307 310 315 317 331 296 308 302 313 93 114 24 9 322 1 332 43 339 35 21 96 83 77 73 92 206 214 199 200 197 194
253 262 252 261 260 263 266 264 279 266 296 284 290 285 296 305 323 319 259 296 314 220 131 149 33 329 4 21 34 290 51 59 80 66 81 78 71 85 123 184 198 207 188
256 238 247 257 253 254 264 286 262 267 269 265 280 254 267 297 317 290 266 271 286 305 195 114 178 336 17 51 18 38 65 72 77 75 71 67 83 88 95 125 150 184 182
255 267 267 259 260 259 259 262 268 247 254 268 269 268 270 291 308 266 271 246 245 269 160 118 231 40 19 58 56 56 71 92 79 75 55 68 95 115 106 105 150 146 195
259 255 254 255 254 256 257 254 256 269 255 264 265 257 262 263 271 272 268 243 229 241 130 128 160 127 90 39 55 48 69 87 86 76 66 55 83 100 105 91 88 123 111
254 252 253 253 253 251 248 249 253 265 248 256 259 250 253 250 237 239 239 278 283 195 110 156 159 153 119 115 89 82 63 101 106 81 83 76 66 84 89 129 124 100 125
258 259 253 249 253 252 253 250 249 249 250 253 254 254 252 238 246 290 251 200 206 206 203 163 151 148 144 149 130 108 98 94 91 104 88 75 80 93 100 118 146 140 114
277 271 265 258 250 249 247 242 246 245 247 248 254 259 258 235 228 211 208 217 183 202 162 176 155 150 169 158 160 144 161 156 120 113 92 89 93 114 127 133 144 152 173
307 298 288 272 257 252 247 234 238 245 248 252 252 249 234 235 171 249 200 207 179 215 189 173 167 169 158 176 175 152 147 137 150 134 120 210 138 167 141 156 138 156 157
351 332 309 288 277 266 265 222 255 258 255 253 253 242 225 168 200 201 234 211 199 204 220 193 172 185 139 188 129 175 156 203 150 132 150 155 179 142 138 82 75 81 223
344 337 326 314 303 294 289 229 238 261 266 255 247 244 209 198 190 191 175 180 198 347 357 221 178 191 163 175 143 183 149 224 96 137 210 133 139 135 145 113 100 106 203
334 323 318 314 310 302 320 253 240 265 268 262 257 241 217 207 195 192 178 195 193 187 186 215 178 170 170 162 171 174 136 104 143 147 241 137 129 147 135 111 102 89 100
317 317 314 306 301 298 321 310 274 281 265 261 253 237 218 211 175 192 187 192 189 189 136 80 62 77 94 146 200 168 167 220 161 151 205 147 148 144 142 137 123 104 81
297 302 304 302 300 294 298 292 276 289 281 270 247 235 196 216 161 180 202 190 193 184 167 174 154 142 155 171 225 254 208 262 153 161 149 201 161 148 150 153 143 164 148